TimeCDT,TemperatureF,Dew PointF,Humidity,Sea Level PressureIn,VisibilityMPH,Wind Direction,Wind SpeedMPH,Gust SpeedMPH,PrecipitationIn,Events,Conditions,WindDirDegrees,DateUTC
12:53 AM,73.0,71.1,93,29.86,6.0,SW,3.5,-,N/A,,Clear,230,2013-07-10 05:53:00
1:53 AM,72.0,70.0,93,29.87,6.0,SW,4.6,-,N/A,,Clear,220,2013-07-10 06:53:00
2:53 AM,72.0,70.0,93,29.87,8.0,Calm,Calm,-,N/A,,Clear,0,2013-07-10 07:53:00
3:53 AM,71.1,69.1,93,29.88,9.0,SW,3.5,-,N/A,,Clear,220,2013-07-10 08:53:00
4:53 AM,70.0,68.0,93,29.90,8.0,SW,4.6,-,N/A,,Clear,220,2013-07-10 09:53:00
5:53 AM,69.1,66.9,93,29.91,4.0,Calm,Calm,-,N/A,,Clear,0,2013-07-10 10:53:00
6:53 AM,71.1,66.9,87,29.91,10.0,West,3.5,-,N/A,,Clear,280,2013-07-10 11:53:00
7:53 AM,73.9,64.0,71,29.93,10.0,NNW,12.7,18.4,N/A,,Clear,340,2013-07-10 12:53:00
8:53 AM,75.0,60.1,60,29.96,10.0,North,15.0,21.9,N/A,,Mostly Cloudy,350,2013-07-10 13:53:00
9:53 AM,75.9,59.0,56,29.96,10.0,NNW,11.5,19.6,N/A,,Clear,340,2013-07-10 14:53:00
10:53 AM,78.1,57.9,50,29.97,10.0,NNW,11.5,-,N/A,,Clear,330,2013-07-10 15:53:00
11:53 AM,79.0,55.9,45,29.98,10.0,NNW,10.4,18.4,N/A,,Clear,340,2013-07-10 16:53:00
12:53 PM,81.0,55.0,41,29.99,10.0,NNW,16.1,21.9,N/A,,Clear,330,2013-07-10 17:53:00
1:53 PM,81.0,54.0,39,30.00,10.0,NNW,9.2,-,N/A,,Partly Cloudy,330,2013-07-10 18:53:00
2:53 PM,82.0,55.0,39,30.00,10.0,NNW,10.4,-,N/A,,Partly Cloudy,340,2013-07-10 19:53:00
3:53 PM,81.0,55.9,42,29.99,10.0,Variable,5.8,-,N/A,,Scattered Clouds,0,2013-07-10 20:53:00
4:53 PM,82.0,55.9,41,29.98,10.0,NW,6.9,-,N/A,,Scattered Clouds,320,2013-07-10 21:53:00
5:53 PM,81.0,55.0,41,29.97,10.0,NW,9.2,-,N/A,,Scattered Clouds,310,2013-07-10 22:53:00
6:53 PM,79.0,55.0,44,29.98,10.0,NW,6.9,-,N/A,,Clear,310,2013-07-10 23:53:00
7:53 PM,75.9,57.0,52,29.98,10.0,NW,3.5,-,N/A,,Clear,310,2013-07-11 00:53:00
8:53 PM,68.0,60.1,76,29.99,10.0,Calm,Calm,-,N/A,,Clear,0,2013-07-11 01:53:00
9:53 PM,63.0,59.0,87,30.01,10.0,Calm,Calm,-,N/A,,Clear,0,2013-07-11 02:53:00
10:53 PM,62.1,59.0,90,30.03,9.0,Calm,Calm,-,N/A,,Clear,0,2013-07-11 03:53:00
11:53 PM,60.1,57.9,93,30.05,7.0,Calm,Calm,-,N/A,,Clear,0,2013-07-11 04:53:00